QPF
0.02 0.01 0.01 0.01 0.01 0.00 0.01 0.00 0.00 0.00 0.01 0.01 0.01 0.00 0.01 0.02 0.02 0.01 0.02 0.05 0.07 0.08 0.09 0.07 0.06 0.05 0.04 0.05 0.05 0.05 0.06 0.05 0.06 0.06 0.05 0.05 0.05 0.05 0.05 0.05 0.05 0.05 0.05
0.02 0.02 0.01 0.02 0.01 0.01 0.01 0.00 0.00 0.00 0.01 0.01 0.00 0.00 0.00 0.01 0.01 0.01 0.01 0.02 0.05 0.06 0.08 0.08 0.07 0.07 0.06 0.05 0.07 0.06 0.05 0.05 0.04 0.04 0.04 0.05 0.05 0.05 0.04 0.03 0.04 0.04 0.04
0.02 0.01 0.01 0.01 0.01 0.01 0.02 0.01 0.01 0.00 0.00 0.01 0.00 0.00 0.00 0.01 0.01 0.01 0.01 0.00 0.01 0.03 0.04 0.05 0.05 0.06 0.06 0.06 0.07 0.05 0.04 0.05 0.04 0.04 0.04 0.04 0.04 0.05 0.05 0.04 0.04 0.04 0.05
0.03 0.03 0.02 0.02 0.01 0.01 0.01 0.01 0.01 0.01 0.00 0.00 0.00 0.00 0.00 0.01 0.01 0.01 0.00 0.00 0.01 0.01 0.02 0.03 0.03 0.04 0.05 0.07 0.07 0.07 0.07 0.07 0.06 0.04 0.04 0.03 0.03 0.04 0.05 0.04 0.04 0.03 0.03
0.04 0.04 0.03 0.02 0.01 0.01 0.01 0.01 0.01 0.00 0.00 0.00 0.00 0.00 0.00 0.01 0.01 0.01 0.01 0.01 0.01 0.01 0.00 0.01 0.02 0.03 0.05 0.07 0.08 0.08 0.08 0.08 0.07 0.06 0.04 0.03 0.03 0.03 0.03 0.03 0.04 0.04 0.03
0.02 0.02 0.02 0.01 0.00 0.00 0.01 0.01 0.00 0.00 0.00 0.00 0.00 0.01 0.01 0.01 0.01 0.01 0.01 0.01 0.01 0.00 0.01 0.02 0.02 0.03 0.04 0.07 0.09 0.10 0.09 0.09 0.08 0.08 0.06 0.05 0.03 0.03 0.03 0.03 0.02 0.03 0.03
0.01 0.01 0.01 0.00 0.01 0.01 0.01 0.01 0.01 0.01 0.00 0.00 0.01 0.01 0.01 0.01 0.00 0.01 0.01 0.01 0.01 0.01 0.03 0.02 0.02 0.02 0.03 0.05 0.07 0.09 0.10 0.08 0.07 0.07 0.06 0.05 0.05 0.04 0.03 0.03 0.02 0.03 0.03
0.01 0.01 0.02 0.01 0.01 0.01 0.02 0.02 0.01 0.01 0.01 0.00 0.01 0.01 0.00 0.00 0.00 0.01 0.01 0.01 0.01 0.02 0.03 0.02 0.02 0.02 0.03 0.04 0.06 0.07 0.08 0.08 0.07 0.06 0.05 0.04 0.05 0.05 0.03 0.03 0.03 0.04 0.04
0.02 0.02 0.02 0.01 0.01 0.01 0.02 0.01 0.01 0.01 0.01 0.01 0.00 0.00 0.00 0.01 0.00 0.01 0.01 0.01 0.02 0.03 0.03 0.02 0.02 0.02 0.02 0.03 0.04 0.05 0.05 0.07 0.06 0.05 0.04 0.04 0.04 0.05 0.05 0.04 0.04 0.05 0.06
0.01 0.03 0.02 0.01 0.01 0.01 0.01 0.01 0.01 0.02 0.02 0.01 0.01 0.00 0.01 0.01 0.01 0.01 0.01 0.01 0.02 0.03 0.03 0.02 0.02 0.02 0.02 0.02 0.01 0.03 0.03 0.04 0.05 0.06 0.05 0.04 0.04 0.04 0.05 0.06 0.06 0.06 0.06
0.00 0.01 0.02 0.02 0.01 0.01 0.00 0.00 0.01 0.01 0.01 0.01 0.01 0.01 0.01 0.01 0.01 0.01 0.01 0.01 0.02 0.04 0.03 0.03 0.02 0.02 0.01 0.01 0.01 0.01 0.02 0.03 0.03 0.05 0.06 0.06 0.06 0.06 0.06 0.06 0.06 0.06 0.07
0.00 0.00 0.01 0.02 0.02 0.01 0.01 0.01 0.00 0.00 0.01 0.01 0.01 0.01 0.02 0.02 0.01 0.01 0.01 0.01 0.02 0.03 0.03 0.02 0.01 0.01 0.01 0.01 0.01 0.01 0.01 0.02 0.02 0.02 0.03 0.04 0.06 0.08 0.08 0.08 0.09 0.10 0.11
0.00 0.01 0.01 0.01 0.02 0.02 0.01 0.01 0.01 0.00 0.01 0.01 0.01 0.02 0.02 0.02 0.01 0.01 0.01 0.01 0.01 0.03 0.03 0.02 0.01 0.01 0.01 0.00 0.00 0.01 0.01 0.01 0.01 0.01 0.01 0.02 0.03 0.05 0.07 0.10 0.11 0.11 0.12
0.01 0.01 0.01 0.02 0.02 0.02 0.02 0.02 0.01 0.01 0.01 0.02 0.02 0.01 0.02 0.03 0.01 0.01 0.02 0.01 0.02 0.03 0.04 0.03 0.02 0.01 0.01 0.00 0.00 0.00 0.01 0.01 0.00 0.00 0.00 0.00 0.01 0.02 0.03 0.07 0.11 0.12 0.11
0.00 0.01 0.01 0.01 0.01 0.02 0.02 0.02 0.01 0.01 0.02 0.02 0.01 0.01 0.02 0.02 0.01 0.02 0.03 0.02 0.02 0.04 0.04 0.03 0.03 0.02 0.01 0.01 0.00 0.00 0.01 0.00 0.01 0.00 0.00 0.00 0.01 0.02 0.03 0.04 0.09 0.12 0.10
0.01 0.01 0.01 0.01 0.01 0.01 0.01 0.01 0.00 0.00 0.01 0.02 0.02 0.01 0.01 0.02 0.02 0.03 0.05 0.04 0.05 0.04 0.04 0.03 0.02 0.01 0.00 0.00 0.00 0.00 0.01 0.01 0.01 0.00 0.00 0.00 0.01 0.01 0.03 0.04 0.06 0.09 0.08
0.02 0.01 0.01 0.01 0.01 0.01 0.00 0.00 0.00 0.00 0.01 0.02 0.02 0.01 0.02 0.03 0.03 0.03 0.04 0.05 0.05 0.05 0.03 0.02 0.02 0.02 0.01 0.00 0.00 0.00 0.00 0.01 0.01 0.01 0.00 0.00 0.01 0.01 0.02 0.02 0.05 0.07 0.08
0.02 0.02 0.02 0.02 0.01 0.01 0.01 0.00 0.00 0.00 0.01 0.01 0.02 0.02 0.03 0.03 0.03 0.02 0.03 0.04 0.05 0.05 0.02 0.02 0.02 0.02 0.01 0.01 0.00 0.00 0.00 0.00 0.00 0.01 0.01 0.01 0.01 0.01 0.02 0.02 0.04 0.07 0.08
0.01 0.02 0.01 0.01 0.01 0.01 0.01 0.00 0.00 0.00 0.01 0.01 0.01 0.01 0.02 0.02 0.02 0.02 0.03 0.03 0.04 0.04 0.03 0.02 0.02 0.02 0.01 0.01 0.01 0.00 0.00 0.01 0.01 0.01 0.02 0.02 0.01 0.01 0.02 0.02 0.03 0.06 0.07
0.03 0.02 0.01 0.01 0.01 0.01 0.01 0.01 0.01 0.01 0.01 0.01 0.01 0.00 0.01 0.01 0.02 0.02 0.01 0.01 0.02 0.02 0.02 0.02 0.01 0.01 0.01 0.01 0.01 0.01 0.01 0.01 0.01 0.01 0.01 0.01 0.02 0.02 0.02 0.02 0.03 0.04 0.05
0.04 0.03 0.02 0.02 0.02 0.02 0.01 0.01 0.01 0.01 0.01 0.01 0.01 0.01 0.01 0.02 0.02 0.01 0.01 0.01 0.01 0.01 0.01 0.01 0.01 0.01 0.01 0.01 0.01 0.01 0.01 0.01 0.01 0.02 0.02 0.03 0.03 0.03 0.03 0.03 0.04 0.04 0.04
0.04 0.04 0.04 0.03 0.03 0.02 0.03 0.03 0.02 0.02 0.02 0.01 0.01 0.01 0.01 0.02 0.02 0.01 0.01 0.01 0.01 0.01 0.01 0.01 0.01 0.01 0.01 0.02 0.02 0.02 0.01 0.01 0.01 0.02 0.02 0.04 0.05 0.05 0.05 0.04 0.05 0.05 0.04
0.03 0.03 0.03 0.03 0.02 0.03 0.03 0.03 0.03 0.02 0.02 0.03 0.03 0.03 0.02 0.02 0.02 0.02 0.02 0.01 0.01 0.01 0.01 0.01 0.01 0.01 0.02 0.02 0.02 0.02 0.02 0.01 0.02 0.03 0.03 0.04 0.05 0.05 0.05 0.05 0.04 0.03 0.03
0.03 0.02 0.02 0.02 0.02 0.02 0.02 0.02 0.03 0.02 0.02 0.02 0.02 0.03 0.02 0.02 0.03 0.03 0.03 0.02 0.01 0.01 0.01 0.01 0.01 0.02 0.01 0.01 0.02 0.03 0.03 0.02 0.03 0.03 0.03 0.03 0.04 0.05 0.05 0.05 0.04 0.04 0.03
0.02 0.02 0.02 0.02 0.02 0.02 0.02 0.02 0.02 0.02 0.02 0.02 0.02 0.02 0.01 0.01 0.02 0.03 0.03 0.04 0.03 0.03 0.03 0.02 0.02 0.02 0.02 0.02 0.02 0.02 0.02 0.02 0.02 0.03 0.03 0.03 0.03 0.04 0.04 0.04 0.05 0.04 0.03
0.01 0.02 0.02 0.02 0.01 0.01 0.02 0.02 0.02 0.02 0.01 0.01 0.02 0.01 0.01 0.01 0.02 0.02 0.02 0.02 0.03 0.03 0.04 0.03 0.02 0.02 0.02 0.02 0.02 0.02 0.02 0.02 0.03 0.03 0.04 0.03 0.03 0.02 0.03 0.03 0.03 0.03 0.03
MSLP
1018.13 1018.23 1018.30 1018.35 1018.43 1018.56 1018.75 1018.99 1019.28 1019.58 1019.87 1020.11 1020.30 1020.45 1020.56 1020.66 1020.75 1020.86 1020.98 1021.10 1021.20 1021.29 1021.35 1021.38 1021.39 1021.41 1021.44 1021.50 1021.58 1021.67 1021.77 1021.83 1021.84 1021.79 1021.67 1021.51 1021.31 1021.09 1020.88 1020.69 1020.52 1020.37 1020.23
1018.75 1018.86 1018.95 1019.03 1019.14 1019.29 1019.50 1019.77 1020.08 1020.41 1020.72 1021.00 1021.22 1021.38 1021.49 1021.57 1021.63 1021.70 1021.77 1021.85 1021.92 1021.98 1022.02 1022.04 1022.05 1022.05 1022.07 1022.10 1022.14 1022.20 1022.25 1022.29 1022.29 1022.24 1022.15 1022.01 1021.83 1021.63 1021.42 1021.21 1021.02 1020.84 1020.68
1019.26 1019.39 1019.52 1019.65 1019.81 1020.01 1020.27 1020.58 1020.92 1021.28 1021.62 1021.92 1022.16 1022.33 1022.44 1022.51 1022.54 1022.56 1022.58 1022.60 1022.63 1022.65 1022.67 1022.68 1022.68 1022.67 1022.67 1022.67 1022.68 1022.70 1022.72 1022.72 1022.71 1022.66 1022.58 1022.47 1022.32 1022.15 1021.96 1021.75 1021.55 1021.35 1021.17
1019.70 1019.87 1020.05 1020.24 1020.46 1020.72 1021.03 1021.38 1021.75 1022.13 1022.49 1022.80 1023.05 1023.23 1023.34 1023.38 1023.39 1023.37 1023.34 1023.31 1023.29 1023.28 1023.27 1023.27 1023.26 1023.25 1023.24 1023.23 1023.21 1023.19 1023.17 1023.14 1023.11 1023.06 1022.99 1022.90 1022.78 1022.64 1022.48 1022.30 1022.10 1021.89 1021.68
1020.09 1020.30 1020.53 1020.79 1021.08 1021.40 1021.75 1022.12 1022.50 1022.88 1023.23 1023.54 1023.78 1023.96 1024.07 1024.11 1024.10 1024.05 1023.99 1023.92 1023.87 1023.83 1023.81 1023.80 1023.79 1023.79 1023.77 1023.75 1023.71 1023.67 1023.62 1023.56 1023.50 1023.44 1023.38 1023.31 1023.22 1023.11 1022.98 1022.82 1022.63 1022.42 1022.19
1020.44 1020.68 1020.97 1021.29 1021.63 1021.99 1022.35 1022.72 1023.09 1023.44 1023.76 1024.05 1024.28 1024.46 1024.57 1024.61 1024.61 1024.56 1024.48 1024.40 1024.34 1024.28 1024.26 1024.25 1024.25 1024.26 1024.26 1024.24 1024.20 1024.14 1024.07 1023.99 1023.91 1023.83 1023.77 1023.71 1023.64 1023.56 1023.45 1023.31 1023.14 1022.93 1022.69
1020.73 1021.00 1021.33 1021.68 1022.06 1022.43 1022.79 1023.13 1023.45 1023.75 1024.03 1024.29 1024.51 1024.68 1024.81 1024.88 1024.90 1024.87 1024.82 1024.75 1024.68 1024.63 1024.61 1024.62 1024.64 1024.67 1024.68 1024.68 1024.65 1024.59 1024.51 1024.41 1024.31 1024.22 1024.15 1024.09 1024.03 1023.97 1023.88 1023.76 1023.59 1023.39 1023.15
1020.96 1021.25 1021.59 1021.95 1022.33 1022.69 1023.02 1023.31 1023.58 1023.82 1024.05 1024.27 1024.47 1024.66 1024.82 1024.94 1025.01 1025.03 1025.01 1024.97 1024.92 1024.89 1024.88 1024.90 1024.94 1024.98 1025.03 1025.04 1025.03 1024.98 1024.90 1024.80 1024.69 1024.59 1024.51 1024.44 1024.38 1024.32 1024.24 1024.13 1023.98 1023.79 1023.55
1021.12 1021.40 1021.74 1022.10 1022.45 1022.78 1023.06 1023.30 1023.50 1023.68 1023.86 1024.06 1024.26 1024.48 1024.68 1024.86 1024.99 1025.07 1025.10 1025.09 1025.07 1025.05 1025.06 1025.08 1025.13 1025.20 1025.26 1025.30 1025.31 1025.27 1025.20 1025.11 1025.00 1024.89 1024.80 1024.72 1024.66 1024.60 1024.52 1024.42 1024.27 1024.09 1023.86
1021.23 1021.48 1021.80 1022.13 1022.46 1022.74 1022.97 1023.15 1023.30 1023.43 1023.58 1023.77 1023.99 1024.24 1024.49 1024.73 1024.93 1025.06 1025.14 1025.17 1025.17 1025.16 1025.16 1025.18 1025.23 1025.31 1025.38 1025.43 1025.46 1025.44 1025.38 1025.30 1025.19 1025.08 1024.99 1024.90 1024.83 1024.77 1024.69 1024.59 1024.46 1024.29 1024.08
1021.30 1021.53 1021.82 1022.12 1022.41 1022.65 1022.84 1022.98 1023.09 1023.19 1023.33 1023.52 1023.76 1024.05 1024.35 1024.64 1024.89 1025.07 1025.18 1025.23 1025.23 1025.22 1025.20 1025.21 1025.25 1025.31 1025.38 1025.44 1025.47 1025.47 1025.42 1025.35 1025.25 1025.14 1025.04 1024.95 1024.88 1024.81 1024.74 1024.64 1024.53 1024.38 1024.19
1021.36 1021.58 1021.84 1022.12 1022.38 1022.59 1022.75 1022.87 1022.96 1023.06 1023.20 1023.40 1023.67 1023.98 1024.32 1024.65 1024.93 1025.13 1025.25 1025.30 1025.30 1025.26 1025.22 1025.20 1025.21 1025.25 1025.31 1025.35 1025.38 1025.38 1025.33 1025.26 1025.16 1025.05 1024.95 1024.87 1024.79 1024.72 1024.65 1024.57 1024.47 1024.35 1024.20
1021.45 1021.66 1021.91 1022.17 1022.41 1022.61 1022.76 1022.87 1022.97 1023.08 1023.23 1023.45 1023.74 1024.07 1024.42 1024.76 1025.04 1025.25 1025.36 1025.40 1025.37 1025.31 1025.24 1025.20 1025.18 1025.19 1025.21 1025.24 1025.25 1025.23 1025.17 1025.08 1024.97 1024.85 1024.74 1024.65 1024.57 1024.51 1024.45 1024.39 1024.31 1024.22 1024.11
1021.55 1021.77 1022.02 1022.28 1022.52 1022.72 1022.88 1023.01 1023.12 1023.25 1023.43 1023.66 1023.95 1024.29 1024.63 1024.96 1025.23 1025.42 1025.51 1025.53 1025.48 1025.40 1025.31 1025.24 1025.20 1025.18 1025.18 1025.17 1025.15 1025.09 1024.99 1024.87 1024.73 1024.59 1024.46 1024.35 1024.26 1024.19 1024.15 1024.10 1024.05 1024.00 1023.94
1021.64 1021.89 1022.16 1022.43 1022.69 1022.91 1023.09 1023.24 1023.38 1023.53 1023.72 1023.97 1024.26 1024.58 1024.91 1025.20 1025.45 1025.61 1025.68 1025.69 1025.63 1025.55 1025.46 1025.39 1025.34 1025.30 1025.27 1025.23 1025.16 1025.05 1024.90 1024.72 1024.52 1024.33 1024.15 1024.01 1023.90 1023.82 1023.77 1023.75 1023.73 1023.71 1023.70
1021.70 1021.98 1022.29 1022.58 1022.86 1023.11 1023.32 1023.50 1023.67 1023.85 1024.05 1024.30 1024.58 1024.88 1025.18 1025.45 1025.66 1025.80 1025.87 1025.88 1025.84 1025.78 1025.71 1025.66 1025.62 1025.59 1025.54 1025.46 1025.34 1025.17 1024.95 1024.69 1024.42 1024.15 1023.90 1023.70 1023.55 1023.44 1023.38 1023.36 1023.36 1023.39 1023.42
1021.68 1022.01 1022.35 1022.67 1022.99 1023.26 1023.51 1023.72 1023.92 1024.13 1024.35 1024.59 1024.86 1025.14 1025.42 1025.66 1025.85 1025.99 1026.07 1026.10 1026.10 1026.09 1026.08 1026.07 1026.06 1026.04 1025.99 1025.88 1025.71 1025.47 1025.17 1024.83 1024.46 1024.09 1023.76 1023.48 1023.26 1023.11 1023.02 1022.99 1023.00 1023.04 1023.11
1021.56 1021.93 1022.31 1022.67 1023.02 1023.33 1023.61 1023.86 1024.09 1024.32 1024.56 1024.81 1025.07 1025.34 1025.60 1025.83 1026.02 1026.17 1026.28 1026.35 1026.41 1026.46 1026.51 1026.57 1026.60 1026.61 1026.56 1026.44 1026.24 1025.94 1025.56 1025.13 1024.66 1024.20 1023.77 1023.39 1023.09 1022.87 1022.73 1022.67 1022.66 1022.71 1022.81
1021.34 1021.75 1022.16 1022.57 1022.95 1023.30 1023.61 1023.90 1024.17 1024.43 1024.68 1024.95 1025.22 1025.49 1025.75 1025.98 1026.18 1026.35 1026.50 1026.63 1026.75 1026.87 1026.98 1027.10 1027.19 1027.23 1027.19 1027.07 1026.84 1026.50 1026.07 1025.56 1025.01 1024.45 1023.93 1023.46 1023.07 1022.77 1022.57 1022.45 1022.41 1022.44 1022.54
1021.05 1021.49 1021.94 1022.38 1022.79 1023.18 1023.54 1023.86 1024.17 1024.46 1024.75 1025.04 1025.32 1025.61 1025.88 1026.13 1026.35 1026.55 1026.74 1026.91 1027.08 1027.26 1027.43 1027.59 1027.72 1027.79 1027.78 1027.67 1027.43 1027.07 1026.61 1026.06 1025.46 1024.84 1024.24 1023.70 1023.22 1022.84 1022.55 1022.37 1022.27 1022.27 1022.34
1020.71 1021.19 1021.67 1022.14 1022.59 1023.02 1023.42 1023.78 1024.13 1024.46 1024.79 1025.11 1025.42 1025.73 1026.03 1026.30 1026.55 1026.78 1026.99 1027.19 1027.39 1027.59 1027.79 1027.98 1028.14 1028.23 1028.24 1028.14 1027.92 1027.58 1027.13 1026.58 1025.96 1025.32 1024.68 1024.08 1023.54 1023.08 1022.72 1022.46 1022.30 1022.23 1022.26
1020.38 1020.88 1021.40 1021.90 1022.39 1022.85 1023.29 1023.70 1024.08 1024.46 1024.83 1025.19 1025.54 1025.88 1026.21 1026.50 1026.77 1027.02 1027.24 1027.45 1027.65 1027.86 1028.05 1028.24 1028.39 1028.49 1028.52 1028.45 1028.27 1027.96 1027.55 1027.04 1026.46 1025.84 1025.20 1024.59 1024.01 1023.50 1023.07 1022.73 1022.50 1022.36 1022.32
1020.06 1020.60 1021.15 1021.69 1022.21 1022.71 1023.18 1023.62 1024.05 1024.47 1024.88 1025.28 1025.68 1026.06 1026.41 1026.73 1027.02 1027.27 1027.49 1027.68 1027.87 1028.04 1028.20 1028.36 1028.49 1028.59 1028.62 1028.58 1028.44 1028.20 1027.87 1027.43 1026.92 1026.36 1025.77 1025.17 1024.59 1024.06 1023.58 1023.18 1022.87 1022.66 1022.54
1019.78 1020.35 1020.93 1021.50 1022.05 1022.58 1023.08 1023.56 1024.02 1024.48 1024.93 1025.38 1025.81 1026.23 1026.62 1026.96 1027.26 1027.51 1027.72 1027.89 1028.03 1028.16 1028.28 1028.39 1028.49 1028.56 1028.59 1028.57 1028.48 1028.31 1028.06 1027.73 1027.32 1026.84 1026.33 1025.78 1025.23 1024.70 1024.21 1023.77 1023.40 1023.12 1022.93
1019.49 1020.11 1020.72 1021.31 1021.89 1022.44 1022.97 1023.47 1023.97 1024.46 1024.95 1025.44 1025.91 1026.37 1026.79 1027.16 1027.48 1027.74 1027.93 1028.08 1028.19 1028.27 1028.33 1028.39 1028.44 1028.48 1028.51 1028.50 1028.45 1028.35 1028.18 1027.94 1027.62 1027.25 1026.82 1026.35 1025.86 1025.36 1024.87 1024.41 1024.01 1023.68 1023.44
1019.19 1019.84 1020.48 1021.10 1021.70 1022.27 1022.81 1023.34 1023.87 1024.39 1024.91 1025.43 1025.95 1026.44 1026.90 1027.31 1027.65 1027.92 1028.12 1028.26 1028.35 1028.39 1028.41 1028.43 1028.44 1028.45 1028.45 1028.45 1028.42 1028.35 1028.23 1028.07 1027.84 1027.55 1027.21 1026.82 1026.39 1025.94 1025.48 1025.04 1024.64 1024.29 1024.02
Thickness
5709 5708 5706 5706 5706 5705 5705 5704 5703 5703 5702 5702 5702 5702 5702 5702 5703 5703 5704 5706 5708 5709 5709 5710 5710 5710 5711 5711 5712 5712 5712 5712 5712 5712 5712 5713 5713 5712 5712 5712 5712 5713 5712
5705 5704 5703 5702 5701 5701 5700 5699 5698 5697 5697 5697 5696 5697 5697 5697 5697 5698 5699 5700 5702 5703 5704 5705 5705 5705 5706 5706 5707 5707 5707 5707 5708 5708 5708 5708 5708 5708 5708 5708 5708 5708 5708
5702 5701 5700 5698 5697 5696 5695 5694 5693 5693 5692 5692 5691 5692 5692 5692 5692 5693 5693 5695 5695 5696 5698 5699 5699 5700 5701 5702 5702 5702 5702 5703 5703 5703 5703 5703 5703 5703 5703 5703 5703 5703 5703
5699 5697 5696 5695 5694 5692 5691 5690 5688 5687 5686 5686 5686 5686 5687 5687 5687 5687 5688 5689 5689 5690 5691 5692 5694 5695 5696 5697 5697 5698 5698 5698 5698 5698 5698 5698 5699 5699 5698 5698 5698 5698 5698
5696 5694 5693 5691 5690 5688 5687 5686 5684 5683 5681 5681 5680 5680 5681 5681 5682 5682 5683 5683 5683 5684 5685 5686 5688 5689 5691 5692 5692 5693 5694 5694 5694 5694 5694 5694 5694 5694 5693 5693 5693 5693 5693
5693 5692 5690 5688 5687 5685 5683 5682 5680 5679 5678 5677 5677 5675 5675 5676 5677 5677 5677 5678 5678 5679 5680 5681 5682 5684 5685 5686 5687 5689 5689 5691 5692 5691 5690 5690 5690 5689 5689 5689 5688 5688 5688
5691 5689 5688 5686 5684 5682 5680 5679 5677 5675 5673 5673 5672 5669 5670 5671 5672 5672 5673 5673 5674 5674 5675 5676 5677 5678 5680 5681 5682 5684 5685 5687 5688 5687 5686 5685 5685 5684 5684 5684 5684 5683 5683
5688 5687 5685 5683 5682 5679 5677 5676 5675 5672 5670 5670 5668 5665 5662 5663 5666 5668 5668 5669 5669 5670 5671 5672 5673 5674 5675 5676 5677 5678 5680 5681 5681 5681 5681 5681 5680 5680 5680 5679 5679 5678 5678
5686 5684 5683 5681 5680 5678 5675 5674 5673 5671 5668 5667 5667 5665 5659 5656 5657 5661 5663 5664 5664 5665 5666 5667 5668 5669 5671 5671 5672 5673 5674 5674 5675 5676 5676 5676 5676 5676 5675 5674 5674 5673 5672
5683 5682 5681 5680 5678 5676 5674 5673 5672 5670 5668 5665 5665 5664 5663 5660 5656 5654 5657 5659 5660 5661 5662 5663 5664 5665 5666 5667 5667 5668 5669 5669 5670 5671 5671 5671 5671 5671 5670 5670 5669 5668 5668
5680 5680 5679 5678 5676 5675 5674 5672 5671 5669 5668 5666 5664 5662 5659 5657 5656 5653 5651 5653 5655 5657 5658 5659 5660 5661 5662 5662 5663 5663 5664 5665 5665 5666 5666 5666 5666 5666 5665 5665 5664 5664 5663
5677 5677 5677 5676 5675 5674 5673 5671 5670 5668 5667 5665 5663 5662 5660 5657 5655 5653 5650 5649 5650 5652 5654 5656 5656 5657 5658 5658 5659 5659 5660 5660 5661 5661 5661 5661 5661 5661 5661 5660 5660 5659 5658
5673 5674 5674 5673 5673 5672 5671 5670 5668 5667 5666 5664 5662 5661 5660 5659 5657 5654 5651 5648 5647 5648 5650 5652 5653 5653 5654 5654 5655 5655 5656 5656 5657 5657 5657 5657 5657 5656 5656 5656 5656 5655 5654
5672 5672 5672 5671 5670 5670 5669 5668 5667 5666 5665 5663 5662 5660 5658 5657 5656 5655 5652 5648 5645 5644 5645 5647 5649 5649 5650 5650 5651 5652 5652 5652 5652 5653 5653 5653 5652 5652 5651 5651 5651 5649 5648
5670 5669 5669 5668 5667 5667 5666 5665 5664 5663 5662 5661 5660 5659 5657 5656 5655 5654 5653 5651 5647 5642 5641 5642 5644 5646 5646 5647 5647 5648 5648 5648 5649 5649 5649 5649 5648 5648 5647 5646 5645 5643 5642
5667 5666 5665 5664 5663 5663 5662 5661 5661 5660 5659 5658 5657 5656 5655 5654 5653 5652 5651 5649 5648 5645 5640 5640 5641 5642 5643 5644 5643 5643 5644 5644 5644 5645 5645 5644 5644 5643 5642 5641 5640 5639 5638
5663 5662 5662 5661 5659 5659 5658 5658 5657 5656 5655 5655 5654 5653 5652 5651 5650 5649 5648 5646 5644 5643 5639 5637 5638 5638 5639 5639 5639 5639 5639 5639 5640 5640 5640 5639 5639 5638 5637 5636 5635 5634 5632
5659 5658 5657 5656 5656 5655 5654 5653 5653 5652 5651 5651 5650 5650 5649 5648 5646 5645 5644 5643 5641 5640 5639 5635 5634 5634 5634 5634 5634 5634 5634 5635 5635 5635 5635 5634 5634 5633 5632 5631 5630 5628 5627
5654 5653 5652 5652 5651 5651 5650 5649 5649 5648 5648 5647 5647 5646 5645 5644 5642 5642 5641 5640 5638 5638 5636 5634 5631 5630 5629 5629 5629 5629 5629 5629 5630 5630 5630 5630 5629 5628 5627 5626 5624 5623 5621
5648 5648 5647 5647 5647 5646 5646 5645 5644 5644 5643 5643 5643 5643 5642 5641 5640 5639 5638 5637 5636 5634 5632 5630 5627 5626 5625 5624 5623 5623 5622 5623 5623 5624 5624 5624 5623 5622 5621 5620 5619 5617 5615
5643 5642 5642 5641 5641 5641 5641 5641 5640 5640 5639 5639 5639 5639 5639 5639 5639 5638 5637 5634 5633 5630 5628 5625 5623 5622 5620 5619 5619 5618 5617 5617 5618 5618 5618 5618 5617 5616 5615 5614 5613 5611 5609
5637 5636 5636 5635 5635 5637 5637 5637 5636 5635 5634 5634 5634 5634 5634 5634 5634 5634 5634 5633 5632 5628 5625 5622 5620 5619 5618 5617 5615 5614 5612 5611 5611 5613 5611 5611 5610 5609 5609 5608 5606 5605 5603
5630 5630 5630 5630 5630 5631 5632 5632 5632 5631 5629 5629 5629 5629 5630 5630 5629 5629 5629 5628 5627 5627 5626 5622 5619 5618 5617 5615 5613 5610 5608 5607 5606 5607 5605 5605 5604 5603 5603 5602 5601 5599 5597
5624 5624 5624 5625 5625 5626 5627 5627 5627 5625 5625 5624 5624 5624 5624 5624 5624 5624 5623 5621 5621 5621 5620 5619 5618 5617 5616 5614 5611 5609 5606 5603 5601 5600 5599 5598 5597 5596 5597 5596 5594 5593 5591
5618 5618 5619 5619 5619 5620 5622 5622 5621 5619 5618 5619 5619 5620 5619 5619 5620 5619 5617 5615 5615 5614 5614 5613 5613 5612 5610 5608 5606 5602 5599 5597 5595 5594 5593 5591 5591 5589 5589 5588 5587 5586 5584
5613 5613 5613 5613 5614 5614 5616 5616 5615 5614 5612 5613 5613 5614 5615 5615 5615 5613 5611 5610 5609 5608 5608 5607 5606 5605 5603 5602 5600 5598 5596 5592 5589 5588 5587 5584 5583 5581 5580 5580 5579 5578 5576